Printer-friendly version

IAU Minor Planet Center

Minor Planet Center

MPEC 2003-G05 : 2003 EG

The following Minor Planet Electronic Circular may be linked-to from your own Web pages, but must not otherwise be redistributed electronically.


Read MPEC 2003-G04 Read MPEC 2003-G06


M.P.E.C. 2003-G05                                Issued 2003 Apr. 1, 23:22 UT

     The Minor Planet Electronic Circulars contain information on unusual
         minor planets and routine data on comets.  They are published
   on behalf of Commission 20 of the International Astronomical Union by the
          Minor Planet Center, Smithsonian Astrophysical Observatory,
                          Cambridge, MA 02138, U.S.A.

             Prepared using the Tamkin Foundation Computer Network

                              MPC@CFA.HARVARD.EDU
          URL http://cfa-www.harvard.edu/iau/mpc.html  ISSN 1523-6714

                                    2003 EG

                           Revision to MPEC 2003-E13

Additional Observations:
     K03E00G  C1996 03 17.37718 11 55 01.55 +02 42 46.5          18.3 R      566
     K03E00G  C1996 03 17.39707 11 54 58.84 +02 42 50.6          17.9 R      566
     K03E00G  C1996 03 17.41815 11 54 55.93 +02 42 54.0          17.7 R      566
     K03E00G   1996 03 18.26875 11 53 01.02 +02 45 23.8          19.9        261
     K03E00G   1996 03 18.30347 11 52 56.31 +02 45 29.6          19.6        261

Observer details:
261 Palomar-DSS.  Observer J. Mueller.  Measurers R. Haver, G. Forti,
    A. Pelloni.  1.2-m Schmidt.
566 Haleakala-NEAT/GEODSS.  Observers E. F. Helin, S. Pravdo, K. J. Lawrence,
    D. L. Rabinowitz.  Measurers R. Haver, G. Forti, A. Pelloni.  1.0-m f/2.2
    GEODSS telescope + CCD.

Orbital elements:
2003 EG
Epoch 2003 June 10.0 TT = JDT 2452800.5                 MPC
M 343.01153              (2000.0)            P               Q
n   0.43031864     Peri.  326.78220     +0.82971157     +0.55813965
a   1.7375712      Node   359.16448     -0.32395651     +0.47030024
e   0.7149748      Incl.   31.74042     -0.45456671     +0.68359185
P   2.29           H   16.6           G   0.15           U   4
Residuals in seconds of arc
960317 566  0.1-  0.2-    030307 704  0.3-  0.1-    030323 246  0.1+  0.5+
960317 566  0.1+  0.4+    030307 704  1.3-  0.5+    030323 246  0.1+  0.3+
960317 566  0.1-  0.0     030307 446  0.7+  0.0     030325 204  0.2+  0.2+
960318 261  0.6-  0.1+    030307 446  0.0   0.1-    030325 204  0.4+  0.3+
960318 261  0.8+  0.2-    030307 704  0.1+  1.0-    030325 204  0.6-  0.0
030303 704  1.0+  0.4-    030307 446  0.2-  0.6+    030325 204  0.1-  0.5+
030303 704  0.5+  1.1-    030307 704  0.1+  1.6-    030325 204  0.3-  0.6+
030303 704  0.3+  0.7-    030307 446  0.2-  0.7+    030325 204  0.2+  0.1-
030303 704  0.1+  0.5-    030307 428  0.6+  0.0     030326 246  0.2+  0.3+
030303 587 (1.4-  2.2+)   030307 428  0.7-  0.8-    030326 246  0.4+  0.0
030303 587  0.1-  0.9+    030308 704  0.2-  1.0-    030326 246  0.4+  0.3+
030303 587  0.2-  0.3+    030308 704  0.2+  0.1+    030326 246  0.2+  0.2+
030303 587  0.1-  0.2+    030308 704  0.7-  0.6-    030326 246  0.3+  0.2+
030304 246  0.3+  0.4+    030308 704  0.4-  0.0     030326 246  0.0   0.1+
030304 246  0.5+  0.4+    030308 704  0.2-  0.3-    030329 860  0.6-  0.8-
030305 246  0.3+  0.6+    030309 474  0.4-  0.1+    030329 860  0.8+  0.2-
030305 246  0.4+  0.7+    030309 474  0.3-  0.1+    030329 860  0.7+  0.6+
030305 246  0.3+  0.4+    030309 474  0.2-  0.1+    030330 699  0.1+  0.0
030305 246  0.6+  0.5+    030311 704  0.3+  0.4-    030330 699  0.4-  0.4-
030305 246  0.6+  0.3+    030311 704  0.3+  0.9-    030330 699  0.6-  0.0
030305 J86  0.1-  0.0     030311 704  0.7+  0.5-    030330 699  0.2+  1.0-
030305 J86  0.1-  0.2+    030311 704  0.3+  0.3+    030331 333  0.3-  0.5-
030305 J86  0.3-  0.0     030311 704  0.5+  0.2-    030331 333  0.9-  0.2+
030305 615  0.2-  0.4-    030313 413  0.3-  0.1+    030331 333  0.0   0.1-
030305 615  0.1+  0.0     030313 413  0.1-  0.3-    030331 333  0.5-  2.0-
030305 615  0.1-  0.3-    030313 413  0.3-  0.2-    030331 333  0.6-  0.3-
030305 474  0.1+  0.1-    030320 673  0.0   0.3-    030331 333  0.2-  0.3-
030305 474  0.0   0.1+    030320 673  0.2-  0.3-    030331 333  0.1+  0.8-
030305 474  0.3+  0.3-    030320 673  0.2+  0.1+    030331 333  0.0   0.4+
030306 670  0.0   0.3+    030320 673  0.2-  0.2-    030331 151  0.1+  0.7+
030306 704  0.7-  0.1+    030322 176  0.3-  0.4-    030331 151  0.6+  0.2-
030306 704  0.6-  0.1+    030322 176  0.2-  0.2-    030331 151  0.2+  0.2+
030306 704  0.4-  0.1-    030322 176  0.0   0.2+    030331 151  0.4-  0.5+
030306 670  0.5-  0.1+    030322 176  0.2+  0.5+    030331 151  0.1-  0.2-
030306 704  0.1-  0.2+    030322 176  0.4+  1.0+    030331 151  0.6-  0.5+
030306 704  0.3-  0.6+    030322 215  0.6-  0.4+    030331 151  0.0   1.1+
030306 670 (2.8+  0.1+)   030323 246  0.4+  0.4+    030331 151  0.5+  1.2-
030306 474  0.3-  0.1+    030323 246  0.3+  0.4+    030331 151  0.7+  0.3+
030306 474  0.2-  0.4+    030323 246  0.4+  0.3+    030331 151  0.1-  0.0
030306 474  0.1-  0.2+    030323 246  0.3+  0.2+

Ephemeris:
2003 EG                  a,e,i = 1.74, 0.71, 32                  q = 0.4953
Date    TT    R. A. (2000) Decl.     Delta      r     Elong.  Phase     V
2003 04 01    12 05.27   -17 46.6    0.712    1.695   164.1     9.3    17.6
2003 04 11    11 24.03   -18 52.1    0.646    1.597   150.7    17.9    17.6
2003 04 21    10 39.98   -19 10.4    0.615    1.494   132.9    29.5    17.7
2003 05 01    09 59.40   -18 49.1    0.612    1.384   115.3    41.2    17.9
2003 05 11    09 25.90   -18 12.8    0.624    1.269    99.1    51.8    18.0
2003 05 21    08 59.18   -17 41.1    0.640    1.148    84.8    61.4    18.1
2003 05 31    08 36.62   -17 16.5    0.648    1.020    72.0    70.9    18.2

Gareth V. Williams           (C) Copyright 2003 MPC           M.P.E.C. 2003-G05

Read MPEC 2003-G04 Read MPEC 2003-G06


Our Web policy. Index to the CBAT/MPC/ICQ pages.


Valid HTML 4.01!